User: anonymous   Login
Location: Innsbruck
(47.2657°N, 11.3914°E)
Time: 07:04:38
(UTC+01:00)
Language:

CUBESAT XI-V - Orbit

View from above orbital plane
View from above orbital plane
View from above satellite
View from above satellite

Ground track
Ground track

The orbit data is extracted from the following two-line orbital elements,

1 28895U 05043F   21338.88743204  .00000260  00000-0  58481-4 0  9995
2 28895  98.0818 108.6517 0017362  37.6421 322.5993 14.64018085858942
Epoch (UTC): 04 December 2021 21:17:54
Eccentricity: 0.0017362
inclination: 98.0818°
perigee height: 668 km
apogee height: 692 km
right ascension of ascending node: 108.6517°
argument of perigee: 37.6421°
revolutions per day: 14.64018085
mean anomaly at epoch: 322.5993°
orbit number at epoch: 85894

The dashed part of the orbit path shows where the satellite is in the earth's shadow,  

DLR